This is the latest recevied weather packets stored in our database for station/object Seibranz. If no packets are shown the sender has not sent any weather packets the latest 10 day(s).
| Time | Temp. | Humidity | Pressure | Rain* | Wind** | Luminosity | Snow |
|---|---|---|---|---|---|---|---|
| 1788310930 | 10.56° C | 90% | 1020.7 hPa | 0 mm | - | - | - |
| 1788309131 | 11.11° C | 90% | 1020.8 hPa | 0 mm | - | - | - |
| 1788307331 | 10.56° C | 90% | 1020.8 hPa | 0 mm | - | - | - |
| 1788305531 | 8.89° C | 92% | 1021 hPa | 0 mm | - | - | - |
| 1788303731 | 9.44° C | 92% | 1021.2 hPa | 0 mm | - | - | - |
| 1788301930 | 9.44° C | 92% | 1021.2 hPa | 0 mm | - | - | - |
| 1788298331 | 9.44° C | 91% | 1021.3 hPa | 0 mm | - | - | - |
| 1788296531 | 10.56° C | 91% | 1021.3 hPa | 0 mm | - | - | - |
| 1788294730 | 10.56° C | 89% | 1021.1 hPa | 0 mm | - | - | - |
| 1788292931 | 11.11° C | 89% | 1021 hPa | 0 mm | - | - | - |
| 1788291131 | 11.11° C | 88% | 1020.7 hPa | 0 mm | - | - | - |
| 1788289330 | 11.67° C | 89% | 1020.4 hPa | 0 mm | - | - | - |
| 1788287533 | 13.33° C | 86% | 1020.2 hPa | 0 mm | - | - | - |
| 1788285731 | 13.89° C | 85% | 1019.9 hPa | 0 mm | - | - | - |
| 1788283931 | 16.11° C | 81% | 1019.7 hPa | 0 mm | - | - | - |
| 1788282131 | 18.89° C | 71% | 1019.7 hPa | 0 mm | - | - | - |
| 1788280331 | 19.44° C | 63% | 1019.9 hPa | 0 mm | - | - | - |
| 1788278530 | 21.11° C | 59% | 1019.9 hPa | 0 mm | - | - | - |
| 1788276731 | 20.56° C | 57% | 1019.7 hPa | 0 mm | - | - | - |
| 1788274930 | 20° C | 64% | 1019.9 hPa | 0 mm | - | - | - |
| 1788273131 | 20.56° C | 59% | 1019.9 hPa | 0 mm | - | - | - |
| 1788271330 | 21.11° C | 61% | 1019.8 hPa | 0 mm | - | - | - |
| 1788269530 | 21.67° C | 57% | 1019.9 hPa | 0 mm | - | - | - |
| 1788267730 | 20° C | 61% | 1020.3 hPa | 0 mm | - | - | - |
| 1788265930 | 21.67° C | 60% | 1020.4 hPa | 0 mm | - | - | - |
* Rain since midnight (hover to see other rain measurements)
** Current wind speed in m/s (hover to see current wind gust speed)